Weather History for KUGN - November, 2013

Change the Weather History Date:

Saturday, November 9, 2013

  Actual Average Record
Temperature  
Mean Temperature 49 °F -  
Max Temperature 56 °F 50 °F 74 °F (1999)
Min Temperature 41 °F 34 °F 21 °F (2003)
Degree Days  
Heating Degree Days 16 23  
Month to date heating degree days 190 187  
Since 1 July heating degree days 830 793  
Cooling Degree Days 0 0  
Month to date cooling degree days 0 0  
Year to date cooling degree days 590 564  
Moisture  
Dew Point 35 °F    
Average Humidity 59    
Maximum Humidity 71    
Minimum Humidity 46    
Precipitation  
Precipitation 0.00 in 0.09 in 1.16 in (2000)
Month to date precipitation 0.74 0.94  
Year to date precipitation 26.98 31.77  
Sea Level Pressure  
Sea Level Pressure 29.89 in    
Wind  
Wind Speed 14 mph (WSW)    
Max Wind Speed 31 mph    
Max Gust Speed 43 mph    
Visibility 10 miles    
Events      
T = Trace of Precipitation, MM = Missing Value Source: NWS Daily Summary

Daily Weather History Graph

Daily Weather History Graph

Search for Another Location

Airport or City:

Trip Planner

Search our weather history database for the weather conditions in past years. The results will help you decide how hot, cold, wet, or windy it might be!

Date:

Astronomy

Nov. 09, 2013 Rise Set
Actual Time 6:35 AM CST 4:34 PM CST
Civil Twilight 6:05 AM CST 5:04 PM CST
Nautical Twilight 5:31 AM CST 5:38 PM CST
Astronomical Twilight 4:58 AM CST 6:11 PM CST
Moon 12:10 PM CST (11/9) 11:06 PM CST (11/9)
Length of Visible Light 10h 59m
Length of Day
9h 59m
Waxing Crescent, 44% of the Moon is Illuminated
Nov 9
Waxing Crescent
Nov 9
First Quarter
Nov 17
Full
Nov 25
Last Quarter
Dec 2
New

Hourly Weather History & Observations

Time (CST) Temp. Windchill Dew Point Humidity Pressure Visibility Wind Dir Wind Speed Gust Speed Precip Events Conditions
12:52 AM 48.0 °F - 30.9 °F 52% 29.88 in 10.0 mi South 24.2 mph 42.6 mph N/A   Partly Cloudy
1:52 AM 46.9 °F - 32.0 °F 56% 29.86 in 10.0 mi SSW 19.6 mph 32.2 mph N/A   Clear
2:52 AM 46.9 °F - 34.0 °F 61% 29.83 in 10.0 mi SSW 19.6 mph 32.2 mph N/A   Clear
3:52 AM 46.9 °F - 35.1 °F 63% 29.82 in 10.0 mi SSW 19.6 mph 28.8 mph N/A   Clear
4:52 AM 46.0 °F 39.3 °F 35.1 °F 66% 29.82 in 10.0 mi SW 16.1 mph 26.5 mph N/A   Clear
5:52 AM 46.0 °F 39.0 °F 36.0 °F 68% 29.82 in 10.0 mi SSW 17.3 mph 24.2 mph N/A   Clear
6:52 AM 46.0 °F 39.9 °F 36.0 °F 68% 29.83 in 10.0 mi SW 13.8 mph 23.0 mph N/A   Clear
7:52 AM 46.9 °F - 37.0 °F 68% 29.83 in 10.0 mi SW 13.8 mph 21.9 mph N/A   Clear
8:09 AM 46.4 °F 41.1 °F 37.4 °F 71% 29.82 in 10.0 mi SW 11.5 mph 23.0 mph N/A   Mostly Cloudy
8:52 AM 50.0 °F - 39.0 °F 66% 29.83 in 10.0 mi WSW 10.4 mph 21.9 mph N/A   Mostly Cloudy
9:52 AM 50.0 °F - 39.0 °F 66% 29.85 in 10.0 mi WSW 13.8 mph 26.5 mph N/A   Mostly Cloudy
10:13 AM 51.8 °F - 39.2 °F 62% 29.84 in 10.0 mi Variable 6.9 mph 23.0 mph N/A   Scattered Clouds
10:52 AM 53.1 °F - 39.0 °F 59% 29.84 in 10.0 mi West 15.0 mph 24.2 mph N/A   Scattered Clouds
11:52 AM 53.1 °F - 37.9 °F 57% 29.85 in 10.0 mi WSW 10.4 mph 24.2 mph N/A   Overcast
12:52 PM 54.0 °F - 37.9 °F 55% 29.84 in 10.0 mi WSW 10.4 mph 21.9 mph N/A   Overcast
1:52 PM 55.0 °F - 37.0 °F 51% 29.85 in 10.0 mi West 15.0 mph 25.3 mph N/A   Scattered Clouds
2:52 PM 54.0 °F - 37.0 °F 53% 29.88 in 10.0 mi West 17.3 mph 33.4 mph N/A   Mostly Cloudy
3:52 PM 52.0 °F - 37.0 °F 57% 29.91 in 10.0 mi West 11.5 mph 18.4 mph N/A   Partly Cloudy
4:52 PM 50.0 °F - 37.0 °F 61% 29.93 in 10.0 mi West 9.2 mph 17.3 mph N/A   Clear
5:52 PM 50.0 °F - 36.0 °F 59% 29.95 in 10.0 mi West 10.4 mph 23.0 mph N/A   Clear
6:52 PM 48.0 °F - 36.0 °F 63% 29.99 in 10.0 mi West 9.2 mph 17.3 mph N/A   Clear
7:52 PM 46.9 °F - 35.1 °F 63% 30.00 in 10.0 mi West 13.8 mph 23.0 mph N/A   Scattered Clouds
8:52 PM 46.0 °F 40.6 °F 30.0 °F 54% 30.02 in 10.0 mi WNW 11.5 mph 26.5 mph N/A   Mostly Cloudy
9:52 PM 44.1 °F 39.5 °F 30.0 °F 58% 30.03 in 10.0 mi West 8.1 mph - N/A   Mostly Cloudy
10:52 PM 41.0 °F 32.8 °F 23.0 °F 49% 30.06 in 10.0 mi West 16.1 mph 25.3 mph N/A   Mostly Cloudy
11:52 PM 41.0 °F 35.2 °F 24.1 °F 51% 30.08 in 10.0 mi West 9.2 mph 25.3 mph N/A   Overcast